Lamoni, IA

4:47 AM CST on December 09, 2016 (GMT -0600)
Lamoni Municipal

Weather History for KLWD - July, 2013

Change the Weather History Date:

Wednesday, July 3, 2013

  Actual Average Record
Temperature  
Mean Temperature 69 °F 74 °F  
Max Temperature 83 °F 85 °F 99 °F (1990)
Min Temperature 55 °F 65 °F 50 °F (1968)
Degree Days  
Heating Degree Days 0 0  
Month to date heating degree days 0 0  
Since 1 June heating degree days 32 19  
Since 1 July heating degree days 0 0  
Cooling Degree Days 4 10  
Month to date cooling degree days 11 28  
Year to date cooling degree days 268 275  
Since 1 June cooling degree days 192 221  
Growing Degree Days 18 (Base 50)    
Moisture  
Dew Point 55 °F    
Average Humidity 62    
Maximum Humidity 86    
Minimum Humidity 37    
Precipitation  
Precipitation 0.00 in 0.15 in 2.01 in (2001)
Month to date precipitation 0.12 0.48  
Sea Level Pressure  
Sea Level Pressure 30.03 in    
Wind  
Wind Speed 3 mph (SW)    
Max Wind Speed 9 mph    
Max Gust Speed 20 mph    
Visibility 10 miles    
Events      
T = Trace of Precipitation, MM = Missing Value Source: NWS Daily Summary

Daily Weather History Graph

Daily Weather History Graph

Search for Another Location

Airport or City:

Trip Planner

Search our weather history database for the weather conditions in past years. The results will help you decide how hot, cold, wet, or windy it might be!

Date:

Astronomy

Jul. 03, 2013 Rise Set
Actual Time 5:49 AM CDT 8:49 PM CDT
Civil Twilight 5:16 AM CDT 9:22 PM CDT
Nautical Twilight 4:34 AM CDT 10:04 PM CDT
Astronomical Twilight 3:45 AM CDT 10:53 PM CDT
Moon 2:28 AM CDT (7/3) 5:00 PM CDT (7/3)
Length of Visible Light 16h 06m
Length of Day
15h 00m
Waning Crescent, 18% of the Moon is Illuminated
Jul 3
Waning Crescent
Jul 8
New
Jul 15
First Quarter
Jul 22
Full
Jul 29
Last Quarter

Hourly Weather History & Observations

Time (CDT) Temp. Heat Index Dew Point Humidity Pressure Visibility Wind Dir Wind Speed Gust Speed Precip Events Conditions
12:53 AM 59.0 °F - 52.0 °F 78% 30.05 in 10.0 mi West 5.8 mph - N/A   Clear
1:53 AM 60.1 °F - 51.1 °F 72% 30.04 in 10.0 mi Calm Calm - N/A   Clear
2:53 AM 60.1 °F - 51.1 °F 72% 30.04 in 10.0 mi South 3.5 mph - N/A   Clear
3:53 AM 57.9 °F - 52.0 °F 81% 30.03 in 10.0 mi SW 3.5 mph - N/A   Clear
4:53 AM 55.0 °F - 52.0 °F 89% 30.04 in 10.0 mi SSW 5.8 mph - N/A   Clear
5:53 AM 55.9 °F - 52.0 °F 87% 30.04 in 10.0 mi SW 4.6 mph - N/A   Clear
6:53 AM 57.9 °F - 52.0 °F 81% 30.04 in 10.0 mi South 4.6 mph - N/A   Clear
7:53 AM 61.0 °F - 55.0 °F 81% 30.06 in 10.0 mi SSW 3.5 mph - N/A   Clear
8:53 AM 66.0 °F - 57.9 °F 75% 30.07 in 10.0 mi Calm Calm - N/A   Clear
9:53 AM 70.0 °F - 59.0 °F 68% 30.06 in 10.0 mi Calm Calm - N/A   Clear
10:53 AM 73.0 °F - 59.0 °F 61% 30.06 in 10.0 mi Calm Calm - N/A   Clear
11:53 AM 78.1 °F - 61.0 °F 56% 30.06 in 10.0 mi Calm Calm - N/A   Clear
12:53 PM 81.0 °F 81.3 °F 59.0 °F 47% 30.04 in 10.0 mi Variable 4.6 mph - N/A   Clear
1:53 PM 78.1 °F - 57.0 °F 48% 30.03 in 10.0 mi Calm Calm - N/A   Scattered Clouds
2:53 PM 82.0 °F 81.2 °F 53.1 °F 37% 30.01 in 10.0 mi NW 9.2 mph - N/A   Partly Cloudy
3:53 PM 82.0 °F 81.2 °F 53.1 °F 37% 30.00 in 10.0 mi Calm Calm - N/A   Clear
4:53 PM 82.0 °F 81.2 °F 53.1 °F 37% 30.00 in 10.0 mi NNW 4.6 mph - N/A   Clear
5:53 PM 81.0 °F 80.5 °F 54.0 °F 39% 29.98 in 10.0 mi Calm Calm - N/A   Clear
6:53 PM 80.1 °F 80.1 °F 55.0 °F 42% 29.98 in 10.0 mi Calm Calm - N/A   Clear
7:53 PM 77.0 °F - 57.0 °F 50% 29.99 in 10.0 mi Calm Calm - N/A   Clear
8:53 PM 73.9 °F - 59.0 °F 59% 29.99 in 10.0 mi South 4.6 mph - N/A   Clear
9:53 PM 70.0 °F - 57.9 °F 65% 30.01 in 10.0 mi SSW 6.9 mph - N/A   Clear
10:53 PM 66.9 °F - 57.0 °F 70% 30.01 in 10.0 mi South 5.8 mph - N/A   Clear
11:53 PM 64.0 °F - 57.0 °F 78% 30.02 in 10.0 mi SSW 6.9 mph - N/A   Clear